Big Piney, WY

11:34 PM MDT on October 21, 2017 (GMT -0600)
Big Piney-Marbleton

Weather History for KBPI - April, 2014

Change the Weather History Date:

Tuesday, April 8, 2014

  Actual Average Record
Temperature  
Mean Temperature 42 °F 35 °F  
Max Temperature 62 °F 50 °F 67 °F (1988)
Min Temperature 22 °F 20 °F 0 °F (1980)
Degree Days  
Heating Degree Days 23 30  
Month to date heating degree days 262 246  
Since 1 July heating degree days 8265 8941  
Cooling Degree Days 0 0  
Month to date cooling degree days 0 0  
Year to date cooling degree days 0 0  
Moisture  
Dew Point 22 °F    
Average Humidity 50    
Maximum Humidity 81    
Minimum Humidity 19    
Precipitation  
Precipitation 0.00 in 0.02 in 0.33 in (2005)
Month to date precipitation T 0.13  
Year to date precipitation 0.16 1.23  
Sea Level Pressure  
Sea Level Pressure 30.21 in    
Wind  
Wind Speed 6 mph (NNW)    
Max Wind Speed 16 mph    
Max Gust Speed 21 mph    
Visibility 10 miles    
Events      
T = Trace of Precipitation, MM = Missing Value Source: NWS Daily Summary

Daily Weather History Graph

Daily Weather History Graph

Search for Another Location

Airport or City:

Trip Planner

Search our weather history database for the weather conditions in past years. The results will help you decide how hot, cold, wet, or windy it might be!

Date:

Astronomy

Apr. 08, 2014 Rise Set
Actual Time 6:50 AM MDT 7:54 PM MDT
Civil Twilight 6:21 AM MDT 8:23 PM MDT
Nautical Twilight 5:47 AM MDT 8:57 PM MDT
Astronomical Twilight 5:11 AM MDT 9:34 PM MDT
Moon 1:43 PM MDT (4/8) 3:13 AM MDT (4/8)
Length of Visible Light 14h 01m
Length of Day
13h 03m
Waxing Gibbous, 63% of the Moon is Illuminated
Apr 8
Waxing Gibbous
Apr 15
Full
Apr 22
Last Quarter
Apr 29
New
May 6
First Quarter

Hourly Weather History & Observations

Time (MDT) Temp. Windchill Dew Point Humidity Pressure Visibility Wind Dir Wind Speed Gust Speed Precip Events Conditions
12:53 AM 27.0 °F 18.7 °F 21.0 °F 78% 30.28 in 10.0 mi NW 8.1 mph - N/A   Clear
1:53 AM 28.0 °F 20.8 °F 21.9 °F 78% 30.28 in 10.0 mi NW 6.9 mph - N/A   Clear
2:53 AM 30.0 °F 20.5 °F 23.0 °F 75% 30.24 in 10.0 mi NNW 11.5 mph - N/A   Clear
3:53 AM 24.1 °F 19.7 °F 19.9 °F 84% 30.26 in 10.0 mi South 3.5 mph - N/A   Clear
4:53 AM 30.0 °F - 23.0 °F 75% 30.23 in 10.0 mi Calm Calm - N/A   Clear
5:53 AM 25.0 °F - 19.0 °F 78% 30.27 in 10.0 mi Calm Calm - N/A   Clear
6:53 AM 25.0 °F - 19.9 °F 81% 30.29 in 10.0 mi Calm Calm - N/A   Clear
7:53 AM 26.1 °F 20.5 °F 21.9 °F 84% 30.32 in 10.0 mi NNW 4.6 mph - N/A   Clear
8:53 AM 34.0 °F 31.0 °F 26.1 °F 73% 30.31 in 10.0 mi West 3.5 mph - N/A   Clear
9:53 AM 43.0 °F 41.3 °F 26.1 °F 51% 30.25 in 10.0 mi SW 3.5 mph - N/A   Clear
10:53 AM 48.0 °F - 25.0 °F 41% 30.26 in 10.0 mi Variable 3.5 mph - N/A   Clear
12:53 PM 54.0 °F - 23.0 °F 30% 30.22 in 10.0 mi Variable 3.5 mph - N/A   Clear
1:53 PM 59.0 °F - 21.0 °F 23% 30.17 in 10.0 mi Variable 5.8 mph - N/A   Clear
2:53 PM 60.1 °F - 17.1 °F 19% 30.15 in 10.0 mi North 16.1 mph 19.6 mph N/A   Clear
3:53 PM 60.1 °F - 17.1 °F 19% 30.16 in 10.0 mi NNW 10.4 mph 20.7 mph N/A   Clear
4:53 PM 60.1 °F - 19.0 °F 20% 30.12 in 10.0 mi North 15.0 mph 20.7 mph N/A   Clear
5:53 PM 57.0 °F - 21.0 °F 25% 30.15 in 10.0 mi NNW 8.1 mph - N/A   Clear
6:53 PM 55.0 °F - 23.0 °F 29% 30.15 in 10.0 mi NNW 3.5 mph - N/A   Clear
7:53 PM 48.0 °F - 23.0 °F 37% 30.18 in 10.0 mi East 6.9 mph - N/A   Clear
8:53 PM 45.0 °F - 21.9 °F 40% 30.16 in 10.0 mi Calm Calm - N/A   Clear
9:53 PM 36.0 °F 31.1 °F 19.9 °F 52% 30.16 in 10.0 mi North 5.8 mph - N/A   Clear
10:53 PM 35.1 °F 31.0 °F 21.0 °F 57% 30.13 in 10.0 mi NNE 4.6 mph - N/A   Clear
11:53 PM 32.0 °F 28.7 °F 21.9 °F 66% 30.13 in 10.0 mi ESE 3.5 mph - N/A   Clear